When you browse on this site, cookies collect data to enhance your experience and personalize the content and advertising you see.
Visit our Privacy Policy to learn more. By continuing to use the site, you agree to this use of cookies and data.
EN

Hourly Weather Golaghat

Today, 26 September, Saturday

Time Temperature Precipitation Wind Pressure Humidity
00:00 +24°C° 0 mm 0 mps 745 mmHg 95%
01:00 +26°C° 1.6 mm 1 mps 744 mmHg 96%
02:00 +26°C° 1.6 mm 1 mps 744 mmHg 97%
03:00 +26°C° 1.6 mm 1 mps 743 mmHg 97%
04:00 +26°C° 1.4 mm 1 mps 743 mmHg 97%
05:00 +26°C° 1.4 mm 1 mps 744 mmHg 97%
06:00 +26°C° 0 mm 2 mps 744 mmHg 98%
07:00 +26°C° 2 mm 2 mps 745 mmHg 97%
08:00 +26°C° 2 mm 2 mps 745 mmHg 97%
09:00 +27°C° 2 mm 2 mps 745 mmHg 96%
10:00 +28°C° 0.4 mm 2 mps 745 mmHg 93%
11:00 +29°C° 0.4 mm 2 mps 745 mmHg 90%
12:00 +29°C° 0 mm 2 mps 745 mmHg 89%
13:00 +30°C° 0.5 mm 2 mps 744 mmHg 87%
14:00 +30°C° 0.5 mm 2 mps 744 mmHg 85%
15:00 +30°C° 0.5 mm 2 mps 743 mmHg 82%
16:00 +29°C° 0.4 mm 2 mps 744 mmHg 85%
17:00 +29°C° 0.4 mm 2 mps 744 mmHg 88%
18:00 +28°C° 0.4 mm 1 mps 744 mmHg 91%
19:00 +27°C° 0.6 mm 1 mps 745 mmHg 92%
20:00 +27°C° 0.6 mm 1 mps 746 mmHg 92%
21:00 +27°C° 0.6 mm 1 mps 746 mmHg 93%
22:00 +26°C° 0.6 mm 1 mps 746 mmHg 94%
23:00 +24°C° 0.6 mm 0 mps 746 mmHg 95%

Tomorrow, 27 September, Sunday

Time Temperature Precipitation Wind Pressure Humidity
00:00 +24°C° 0.6 mm 0 mps 746 mmHg 96%
01:00 +24°C° 1.8 mm 0 mps 746 mmHg 97%
02:00 +26°C° 1.8 mm 1 mps 745 mmHg 97%
03:00 +26°C° 1.8 mm 1 mps 745 mmHg 98%
04:00 +26°C° 5.5 mm 1 mps 746 mmHg 98%
05:00 +26°C° 5.5 mm 1 mps 746 mmHg 98%
06:00 +26°C° 5.5 mm 1 mps 746 mmHg 98%
07:00 +26°C° 0.7 mm 1 mps 747 mmHg 97%
08:00 +27°C° 0.7 mm 1 mps 747 mmHg 96%
09:00 +25°C° 0.7 mm 0 mps 748 mmHg 95%
10:00 +27°C° 0.3 mm 1 mps 747 mmHg 94%
11:00 +28°C° 0.3 mm 1 mps 747 mmHg 93%
12:00 +28°C° 0.3 mm 1 mps 747 mmHg 92%
13:00 +27°C° 1.5 mm 1 mps 746 mmHg 94%
14:00 +27°C° 1.5 mm 1 mps 746 mmHg 95%
15:00 +27°C° 1.5 mm 1 mps 745 mmHg 97%
16:00 +26°C° 0.7 mm 1 mps 745 mmHg 97%
17:00 +26°C° 0.7 mm 1 mps 745 mmHg 98%
18:00 +26°C° 0.7 mm 1 mps 745 mmHg 98%
19:00 +26°C° 0.2 mm 1 mps 746 mmHg 98%
20:00 +26°C° 0.2 mm 1 mps 746 mmHg 98%
21:00 +26°C° 0.2 mm 1 mps 747 mmHg 98%
22:00 +25°C° 0.3 mm 1 mps 747 mmHg 98%
23:00 +25°C° 0.3 mm 1 mps 747 mmHg 98%

Day after tomorrow, 28 September, Monday

Time Temperature Precipitation Wind Pressure Humidity
00:00 +25°C° 0.3 mm 1 mps 747 mmHg 98%
01:00 +25°C° 0.4 mm 1 mps 747 mmHg 98%
02:00 +23°C° 0.4 mm 0 mps 746 mmHg 98%
03:00 +23°C° 0.4 mm 0 mps 746 mmHg 98%
04:00 +23°C° 0.7 mm 0 mps 746 mmHg 98%
05:00 +23°C° 0.7 mm 0 mps 746 mmHg 98%
06:00 +23°C° 0.7 mm 0 mps 747 mmHg 98%
07:00 +26°C° 0.6 mm 1 mps 747 mmHg 97%
08:00 +27°C° 0.6 mm 1 mps 747 mmHg 95%
09:00 +27°C° 0.6 mm 1 mps 748 mmHg 93%
10:00 +28°C° 0.1 mm 1 mps 747 mmHg 90%
11:00 +29°C° 0.1 mm 1 mps 747 mmHg 86%
12:00 +30°C° 0.1 mm 2 mps 746 mmHg 82%
13:00 +30°C° 0.1 mm 1 mps 745 mmHg 81%
14:00 +31°C° 0.1 mm 1 mps 744 mmHg 80%
15:00 +31°C° 0.1 mm 1 mps 744 mmHg 78%
16:00 +30°C° 0.2 mm 1 mps 744 mmHg 83%
17:00 +29°C° 0.2 mm 1 mps 744 mmHg 87%
18:00 +28°C° 0.2 mm 1 mps 744 mmHg 91%
19:00 +28°C° 0.3 mm 1 mps 745 mmHg 92%
20:00 +27°C° 0.3 mm 1 mps 745 mmHg 93%
21:00 +27°C° 0.3 mm 1 mps 746 mmHg 94%
22:00 +27°C° 0.4 mm 1 mps 746 mmHg 95%
23:00 +25°C° 0.4 mm 0 mps 746 mmHg 95%

29 September, Tuesday

Time Temperature Precipitation Wind Pressure Humidity
00:00 +24°C° 0.4 mm 0 mps 746 mmHg 96%
01:00 +24°C° 1 mm 0 mps 746 mmHg 96%
02:00 +24°C° 1 mm 0 mps 745 mmHg 96%
03:00 +24°C° 1 mm 0 mps 745 mmHg 96%
04:00 +24°C° 0.7 mm 0 mps 745 mmHg 96%
05:00 +24°C° 0.7 mm 0 mps 745 mmHg 97%
06:00 +24°C° 0.7 mm 0 mps 746 mmHg 97%
07:00 +25°C° 0.2 mm 0 mps 746 mmHg 93%
08:00 +26°C° 0.2 mm 0 mps 746 mmHg 89%
09:00 +30°C° 0.2 mm 1 mps 747 mmHg 85%
10:00 +29°C° 0.3 mm 0 mps 746 mmHg 81%
11:00 +30°C° 0.3 mm 0 mps 746 mmHg 78%
12:00 +31°C° 0.3 mm 0 mps 745 mmHg 74%
13:00 +31°C° 0.3 mm 0 mps 744 mmHg 74%
14:00 +30°C° 0.3 mm 0 mps 744 mmHg 74%
15:00 +32°C° 0.3 mm 1 mps 743 mmHg 74%
16:00 +29°C° 0.2 mm 0 mps 743 mmHg 78%
17:00 +28°C° 0.2 mm 0 mps 743 mmHg 83%
18:00 +27°C° 0.2 mm 0 mps 743 mmHg 87%
19:00 +27°C° 0 mm 0 mps 744 mmHg 88%
20:00 +26°C° 0 mm 0 mps 744 mmHg 88%
21:00 +26°C° 0 mm 0 mps 745 mmHg 89%
22:00 +26°C° 0.1 mm 0 mps 745 mmHg 90%
23:00 +26°C° 0.1 mm 0 mps 745 mmHg 90%

30 September, Wednesday

Time Temperature Precipitation Wind Pressure Humidity
00:00 +25°C° 0.1 mm 0 mps 745 mmHg 91%
01:00 +25°C° 0.7 mm 0 mps 745 mmHg 92%
02:00 +25°C° 0.7 mm 0 mps 745 mmHg 93%
03:00 +24°C° 0.7 mm 0 mps 744 mmHg 95%
04:00 +24°C° 0.9 mm 0 mps 745 mmHg 95%
05:00 +24°C° 0.9 mm 0 mps 745 mmHg 96%
06:00 +24°C° 0.9 mm 0 mps 745 mmHg 96%
07:00 +27°C° 0.5 mm 1 mps 746 mmHg 92%
08:00 +29°C° 0.5 mm 1 mps 746 mmHg 88%
09:00 +30°C° 0.5 mm 1 mps 746 mmHg 84%
10:00 +31°C° 1 mm 1 mps 746 mmHg 80%
11:00 +32°C° 1 mm 1 mps 745 mmHg 77%
12:00 +33°C° 1 mm 1 mps 744 mmHg 73%
13:00 +31°C° 0.1 mm 0 mps 744 mmHg 71%
14:00 +31°C° 0.1 mm 0 mps 743 mmHg 69%
15:00 +32°C° 0.1 mm 0 mps 742 mmHg 66%
16:00 +30°C° 0 mm 0 mps 742 mmHg 71%
17:00 +29°C° 0 mm 0 mps 742 mmHg 76%
18:00 +28°C° 0 mm 0 mps 742 mmHg 81%
19:00 +27°C° 0.1 mm 0 mps 743 mmHg 83%
20:00 +27°C° 0.1 mm 0 mps 744 mmHg 85%
21:00 +28°C° 0.1 mm 1 mps 744 mmHg 87%
22:00 +26°C° 0.1 mm 0 mps 744 mmHg 88%
23:00 +26°C° 0.1 mm 0 mps 744 mmHg 89%

1 October, Thursday

Time Temperature Precipitation Wind Pressure Humidity
00:00 +25°C° 0.1 mm 0 mps 744 mmHg 91%
01:00 +25°C° 1.1 mm 0 mps 744 mmHg 92%
02:00 +25°C° 1.1 mm 0 mps 744 mmHg 93%
03:00 +27°C° 1.1 mm 1 mps 744 mmHg 94%
04:00 +27°C° 2.8 mm 1 mps 744 mmHg 95%
05:00 +24°C° 2.8 mm 0 mps 744 mmHg 96%
06:00 +24°C° 2.8 mm 0 mps 745 mmHg 97%
07:00 +25°C° 0.3 mm 0 mps 745 mmHg 95%
08:00 +26°C° 0.3 mm 0 mps 745 mmHg 94%
09:00 +26°C° 0.3 mm 0 mps 746 mmHg 92%
10:00 +27°C° 0 mm 0 mps 745 mmHg 87%
11:00 +30°C° 0 mm 1 mps 744 mmHg 83%
12:00 +31°C° 0 mm 1 mps 744 mmHg 79%
13:00 +31°C° 0 mm 1 mps 743 mmHg 76%
14:00 +32°C° 0 mm 1 mps 742 mmHg 74%
15:00 +32°C° 0 mm 1 mps 742 mmHg 72%
16:00 +31°C° 0.1 mm 1 mps 742 mmHg 76%
17:00 +30°C° 0.1 mm 1 mps 742 mmHg 81%
18:00 +29°C° 0.1 mm 1 mps 742 mmHg 85%
19:00 +26°C° 0.1 mm 0 mps 742 mmHg 86%
20:00 +26°C° 0.1 mm 0 mps 743 mmHg 87%
21:00 +25°C° 0.1 mm 0 mps 744 mmHg 88%
22:00 +25°C° 0 mm 0 mps 744 mmHg 89%
23:00 +25°C° 0 mm 0 mps 744 mmHg 89%
Show more